Dewpoint
7 7 6 6 6 7 6 5 4 3 4 3 -2 -6 -7 -8 -10 -9 -7 -9 -8 -7 -6 -5 -5 -8 -10 -9 -9 -8 -7 -7 -7 -8 -9 -10 -11 -12 -15 -18 -20 -21 -20
8 9 7 7 6 5 3 2 3 4 2 -3 -7 -7 -8 -9 -8 -8 -8 -7 -7 -6 -5 -5 -6 -9 -9 -8 -7 -7 -7 -6 -7 -8 -9 -10 -11 -13 -15 -18 -20 -19 -18
9 7 5 4 3 2 1 3 3 -1 -5 -7 -8 -12 -12 -9 -10 -10 -8 -7 -6 -5 -4 -5 -7 -9 -7 -7 -6 -6 -6 -6 -8 -9 -9 -10 -11 -13 -16 -20 -19 -19 -20
7 5 5 4 3 2 3 0 -3 -6 -7 -9 -14 -10 -7 -10 -13 -12 -10 -9 -5 -5 -5 -6 -7 -8 -8 -7 -6 -6 -6 -7 -8 -9 -10 -10 -11 -14 -17 -19 -19 -20 -20
6 5 3 4 3 3 -3 -5 -7 -8 -12 -9 -4 -6 -13 -15 -15 -14 -13 -10 -7 -6 -6 -7 -8 -8 -7 -6 -6 -6 -7 -8 -9 -9 -9 -10 -12 -14 -18 -18 -18 -19 -20
4 4 4 3 1 -4 -7 -8 -9 -6 -3 -2 -12 -17 -17 -15 -13 -13 -12 -11 -9 -7 -8 -8 -7 -8 -7 -6 -7 -8 -9 -9 -9 -9 -9 -10 -12 -14 -18 -17 -17 -17 -14
4 4 2 -2 -6 -9 -9 -7 -3 -2 -2 -14 -19 -16 -15 -15 -14 -13 -11 -10 -9 -8 -7 -7 -8 -10 -6 -7 -9 -9 -8 -8 -9 -9 -10 -11 -12 -17 -16 -16 -16 -16 -16
3 1 -4 -9 -7 -4 -3 -2 -2 -6 -12 -18 -16 -15 -16 -16 -16 -16 -15 -10 -7 -6 -6 -7 -10 -9 -7 -7 -8 -8 -9 -10 -9 -9 -10 -12 -16 -16 -15 -16 -16 -17 -18
-3 -7 -7 -4 -4 -3 -1 -3 -7 -10 -16 -16 -15 -15 -16 -16 -15 -15 -16 -13 -8 -6 -7 -8 -10 -10 -7 -8 -8 -9 -10 -12 -10 -10 -11 -14 -15 -15 -14 -14 -15 -15 -17
-8 -6 -6 -3 -2 -2 -4 -9 -15 -17 -16 -16 -15 -15 -16 -16 -14 -13 -14 -14 -10 -8 -8 -7 -9 -10 -10 -7 -8 -9 -9 -11 -10 -10 -12 -14 -14 -14 -14 -14 -14 -14 -15
-5 -3 -4 -1 -4 -9 -14 -16 -15 -15 -15 -15 -14 -13 -12 -11 -11 -11 -10 -12 -13 -12 -11 -9 -8 -10 -9 -8 -9 -8 -10 -10 -11 -11 -12 -12 -12 -13 -13 -14 -14 -14 -15
-4 -3 -4 -11 -13 -12 -11 -11 -10 -10 -9 -9 -8 -8 -8 -7 -7 -7 -8 -9 -10 -11 -12 -10 -7 -7 -8 -9 -8 -8 -9 -9 -12 -11 -11 -12 -12 -12 -13 -13 -14 -14 -16
-4 -12 -12 -13 -12 -11 -10 -10 -10 -9 -8 -8 -7 -7 -6 -6 -6 -5 -5 -6 -8 -9 -11 -11 -9 -7 -7 -8 -8 -8 -9 -9 -10 -10 -11 -11 -12 -12 -12 -13 -13 -14 -16
-12 -12 -12 -12 -12 -12 -11 -11 -11 -11 -13 -14 -14 -15 -12 -10 -8 -8 -8 -6 -6 -7 -10 -10 -9 -9 -9 -9 -9 -9 -9 -9 -9 -10 -10 -11 -11 -12 -12 -12 -13 -15 -17
-13 -13 -15 -18 -21 -23 -25 -28 -32 -35 -30 -21 -14 -9 -9 -12 -16 -12 -8 -7 -7 -7 -8 -9 -9 -9 -10 -10 -9 -9 -10 -10 -10 -10 -10 -11 -11 -11 -12 -12 -12 -15 -16
-21 -22 -23 -25 -30 -35 -37 -37 -36 -33 -26 -22 -19 -17 -19 -12 -10 -10 -9 -7 -7 -7 -7 -8 -9 -9 -10 -10 -9 -9 -9 -10 -10 -10 -11 -12 -11 -11 -12 -12 -13 -15 -16
-23 -28 -33 -36 -36 -35 -32 -28 -28 -32 -23 -19 -14 -11 -9 -9 -8 -8 -8 -8 -8 -7 -7 -8 -8 -8 -9 -9 -9 -9 -9 -9 -10 -10 -11 -12 -11 -12 -12 -12 -13 -15 -16
-33 -35 -34 -33 -31 -28 -24 -19 -15 -13 -13 -15 -14 -11 -11 -11 -9 -8 -8 -8 -8 -8 -8 -8 -8 -9 -8 -8 -8 -8 -8 -9 -10 -11 -11 -11 -11 -12 -12 -12 -13 -14 -16
-34 -33 -32 -31 -28 -25 -21 -17 -15 -14 -14 -14 -14 -14 -13 -12 -10 -9 -9 -8 -9 -9 -9 -8 -9 -8 -8 -8 -8 -8 -9 -9 -9 -11 -11 -12 -12 -11 -12 -12 -13 -14 -16
-32 -30 -29 -28 -27 -25 -22 -19 -19 -17 -16 -16 -15 -15 -15 -14 -13 -12 -11 -12 -11 -10 -10 -9 -9 -9 -9 -9 -9 -9 -9 -9 -9 -10 -11 -11 -11 -11 -12 -12 -13 -15 -17
-29 -28 -27 -27 -26 -24 -22 -20 -19 -18 -17 -17 -16 -16 -15 -15 -14 -13 -13 -12 -12 -12 -11 -11 -10 -9 -9 -9 -9 -10 -9 -9 -9 -9 -11 -11 -11 -12 -12 -12 -13 -15 -18
-27 -26 -25 -25 -24 -23 -23 -21 -20 -18 -17 -17 -17 -17 -17 -16 -16 -16 -15 -14 -14 -14 -13 -12 -12 -11 -10 -10 -9 -9 -9 -10 -9 -9 -10 -11 -11 -11 -11 -12 -13 -16 -19
-25 -25 -24 -24 -23 -23 -22 -21 -20 -19 -18 -18 -18 -18 -18 -17 -17 -17 -17 -16 -15 -15 -14 -14 -13 -12 -12 -11 -10 -10 -9 -10 -10 -9 -9 -10 -10 -11 -11 -12 -13 -16 -19
-25 -24 -23 -23 -22 -22 -21 -20 -20 -19 -19 -19 -19 -19 -19 -19 -18 -18 -18 -17 -16 -16 -15 -15 -14 -14 -13 -12 -11 -10 -10 -9 -9 -10 -10 -9 -10 -10 -11 -12 -13 -15 -19
-23 -23 -22 -22 -21 -21 -21 -20 -20 -20 -20 -20 -21 -21 -22 -22 -22 -22 -23 -22 -21 -18 -16 -16 -16 -16 -14 -13 -13 -12 -11 -10 -10 -9 -10 -10 -9 -10 -11 -11 -13 -15 -19
-22 -22 -21 -21 -21 -21 -20 -20 -20 -21 -21 -22 -23 -23 -23 -23 -23 -23 -23 -23 -23 -23 -23 -21 -18 -19 -21 -15 -13 -13 -11 -11 -10 -10 -9 -10 -10 -10 -11 -12 -13 -15 -19
Wind_Speed
23 22 22 24 27 28 28 30 30 21 17 15 10 8 12 17 18 18 19 18 18 18 18 20 24 25 20 17 17 17 17 17 21 23 22 22 26 28 27 27 27 28 28
29 28 30 29 28 27 26 17 10 17 17 9 8 11 18 17 18 20 19 19 21 21 19 22 26 23 21 19 20 20 20 21 22 23 25 26 27 27 28 28 26 24 24
31 28 27 29 26 23 19 17 20 11 6 6 13 16 18 19 21 20 21 21 22 20 21 25 25 21 22 22 22 22 23 21 20 24 26 27 29 28 28 27 26 24 23
31 30 31 26 22 18 19 13 9 7 9 12 16 20 20 19 20 21 22 21 20 22 25 25 23 23 25 23 23 24 25 19 22 23 26 28 28 27 28 28 28 25 25
31 29 24 17 17 16 11 9 7 9 12 15 23 19 19 21 21 21 20 20 23 24 24 24 25 26 26 25 24 25 20 20 22 24 26 27 28 27 26 26 26 26 28
27 23 16 16 14 12 10 6 8 12 17 26 19 20 20 20 20 20 20 21 22 23 25 26 27 28 24 21 19 19 18 21 23 25 26 27 27 27 24 24 24 26 24
22 17 16 14 13 10 7 9 12 22 26 20 20 20 20 21 21 23 22 24 24 25 26 29 29 24 20 19 18 18 21 23 24 25 25 25 27 23 23 23 22 23 26
18 15 14 11 6 4 10 18 25 19 20 21 20 20 22 23 23 25 26 27 27 27 28 29 25 20 21 19 20 21 24 24 23 23 25 25 23 20 19 21 22 26 28
15 14 11 4 8 15 21 19 18 21 21 21 21 22 25 27 27 28 28 28 29 31 30 27 24 22 20 20 22 23 23 22 21 22 23 22 19 17 17 20 21 26 30
13 7 4 11 16 22 15 20 20 21 21 23 25 25 28 30 30 30 29 28 32 34 32 27 25 24 21 23 22 23 23 21 20 21 20 18 17 17 17 18 20 24 24
4 6 13 20 15 16 17 19 20 21 25 27 29 30 30 31 32 32 30 28 29 32 32 30 26 22 21 22 22 25 24 19 19 19 19 17 17 17 17 17 18 20 22
7 9 10 11 11 14 16 18 21 26 30 33 35 38 38 36 35 34 33 32 29 28 31 30 27 24 24 25 23 27 22 21 20 19 20 20 19 17 16 17 18 20 19
8 8 9 12 15 18 22 25 28 30 34 37 40 44 47 46 41 37 36 34 32 29 30 27 25 24 27 26 26 26 22 23 25 22 22 22 18 17 18 18 19 20 19
8 10 13 16 19 22 25 28 31 34 36 38 40 43 44 45 44 43 40 36 35 31 29 25 23 23 23 25 25 24 27 26 27 24 24 23 19 19 18 18 21 20 20
11 14 18 22 25 28 30 32 34 34 33 34 34 34 36 41 42 40 39 40 37 36 25 22 23 25 24 23 24 24 24 27 28 25 25 24 20 19 17 17 20 18 19
15 18 22 26 28 30 32 34 32 33 33 32 32 30 32 33 34 34 36 35 34 35 23 22 24 24 25 24 22 24 22 21 24 25 23 22 19 17 16 16 17 17 18
19 21 23 24 26 28 29 30 35 36 32 32 33 30 27 29 32 29 29 26 20 21 21 21 24 26 28 25 24 24 24 22 20 21 21 19 17 15 15 15 15 16 17
18 20 21 22 23 24 25 25 26 30 35 38 34 29 29 28 22 21 19 17 16 17 19 20 22 24 24 24 26 27 23 21 19 21 20 19 18 17 15 14 14 15 15
18 19 20 22 22 22 22 23 24 26 28 29 32 30 29 28 24 18 16 15 16 15 16 19 20 20 21 23 23 23 21 20 19 19 19 18 18 18 15 14 14 14 14
16 18 19 20 20 21 21 23 24 25 27 27 27 27 29 29 28 25 22 16 12 12 13 14 15 16 15 16 18 18 21 20 20 19 20 19 18 17 15 14 13 12 11
17 18 18 19 20 21 21 22 24 24 25 25 24 24 26 26 24 24 24 24 23 20 16 15 14 13 15 15 15 15 16 17 18 19 19 19 18 17 14 14 12 11 10
17 18 19 21 21 21 21 22 23 24 24 25 26 25 24 24 25 24 23 23 23 22 20 20 19 16 14 15 15 15 14 14 16 20 20 20 19 17 16 14 12 10 8
19 19 20 21 21 21 22 22 23 24 25 25 26 26 26 25 25 25 25 24 23 23 22 20 19 19 19 18 17 14 15 13 14 15 20 21 21 19 18 15 12 10 8
20 21 21 21 21 21 22 22 23 23 24 25 25 25 25 25 25 25 25 25 25 23 22 21 19 19 19 18 18 17 16 17 16 13 14 20 21 21 19 16 13 10 8
20 19 20 21 21 22 22 22 22 22 22 23 24 24 24 25 25 25 25 26 25 25 23 21 20 21 20 19 18 18 19 19 18 17 12 17 22 21 20 15 13 11 10
19 19 20 20 20 21 22 22 22 22 23 24 24 24 25 25 26 26 26 27 27 26 24 22 21 21 21 20 20 20 19 19 20 20 17 16 23 22 21 16 14 12 10
Wind_Direction
212 221 226 228 232 231 234 227 227 227 257 280 290 264 287 290 292 300 308 311 312 311 306 305 316 320 315 304 296 293 292 290 289 296 296 302 304 309 308 307 308 306 304
217 219 218 222 219 216 210 209 251 276 285 277 252 280 284 287 295 301 303 306 306 303 297 303 314 313 306 303 290 283 284 286 290 294 298 302 305 309 311 312 312 312 308
221 214 210 209 208 209 214 252 259 270 264 253 270 274 279 289 295 297 297 298 300 294 296 303 310 305 300 299 290 278 278 279 283 288 298 302 307 312 312 313 315 315 310
215 207 212 208 219 233 255 251 256 237 247 270 272 281 290 294 297 297 295 295 294 291 296 303 306 306 300 296 288 278 276 273 282 287 294 299 304 312 313 315 315 318 318
208 207 205 211 227 242 219 213 223 261 273 281 292 292 296 297 297 298 299 295 290 291 295 300 304 306 296 292 282 283 274 279 282 285 291 298 304 311 313 313 315 318 319
211 211 217 223 225 204 199 230 272 286 302 305 294 296 293 296 303 305 303 297 293 292 296 301 303 300 288 280 277 276 273 275 280 286 290 295 304 308 308 311 318 320 323
211 214 213 202 193 207 241 273 300 310 302 290 291 292 297 302 305 305 303 299 296 295 296 301 301 297 277 276 276 276 278 280 282 283 287 296 301 304 305 311 317 318 313
198 199 184 179 190 288 310 298 300 294 287 291 294 299 303 306 308 307 303 297 295 291 294 300 297 288 277 272 277 279 284 283 280 280 287 297 295 298 301 310 314 315 312
172 168 171 199 304 299 305 309 294 289 295 297 299 302 306 309 311 309 305 295 289 286 292 296 292 288 275 273 276 282 285 281 276 279 288 293 293 297 297 302 307 313 316
161 166 270 285 296 303 300 294 297 298 299 300 302 305 308 309 310 309 306 296 289 289 292 287 285 285 275 269 275 281 280 286 280 279 285 286 288 292 293 295 305 311 312
191 303 296 312 305 295 297 302 303 304 305 305 305 306 305 309 313 310 307 301 296 295 292 288 280 279 271 269 273 273 280 285 277 275 285 283 286 289 290 294 302 308 306
283 312 318 301 304 312 310 309 310 308 307 306 306 305 304 305 303 306 305 298 296 292 292 291 282 274 267 267 271 271 274 274 271 273 284 282 288 290 292 297 306 308 304
294 270 277 289 295 299 302 304 304 303 301 301 300 300 300 302 297 294 297 296 291 287 288 289 286 276 272 265 273 279 262 270 266 269 282 288 286 288 289 299 309 311 308
286 296 301 303 305 305 306 306 306 306 306 305 305 306 307 305 303 299 299 295 290 276 278 279 281 279 274 276 276 269 270 263 267 265 275 286 277 282 285 297 309 312 312
303 306 308 311 313 314 314 315 314 314 317 316 315 311 309 306 307 305 305 300 295 292 264 260 268 276 278 279 277 277 277 268 263 261 275 278 267 275 281 294 306 306 311
313 316 318 319 320 321 321 320 321 322 325 325 321 318 314 308 305 302 299 297 294 297 261 259 267 274 279 284 284 281 279 272 260 268 270 267 259 268 275 289 301 304 308
321 322 324 326 328 329 331 331 329 327 331 336 339 337 333 330 323 313 303 294 299 286 273 271 279 279 280 285 286 284 279 279 267 259 263 253 252 262 271 287 295 303 305
328 329 331 333 335 337 340 341 342 343 341 341 346 344 338 334 323 323 321 319 314 303 295 291 289 296 288 289 293 283 282 276 267 254 256 247 249 261 271 286 289 298 304
331 333 337 339 340 340 338 335 333 333 335 334 333 336 345 346 339 321 314 308 305 309 312 305 299 297 297 297 290 290 284 271 265 252 249 247 246 258 266 278 284 291 298
336 338 340 339 338 337 338 337 336 337 336 337 338 336 336 338 337 338 342 342 328 315 308 301 295 292 301 305 308 293 287 275 256 252 245 244 248 249 256 270 277 284 290
338 338 336 335 335 336 336 334 334 333 332 333 335 336 335 336 334 331 330 329 329 327 322 315 309 304 299 297 312 315 306 285 258 252 244 242 242 243 251 263 267 273 282
332 331 331 331 331 330 329 327 326 326 326 328 330 332 331 329 329 329 328 327 326 325 322 314 305 305 309 302 299 295 304 304 275 251 243 237 238 239 241 254 259 258 267
326 326 326 325 325 325 323 322 322 323 324 326 328 329 331 332 330 329 328 326 324 321 318 317 312 303 296 290 293 291 286 288 299 284 250 239 235 233 235 246 248 245 252
322 323 325 324 324 323 322 322 323 324 324 326 327 328 329 329 330 329 328 327 325 323 319 314 314 311 304 301 290 283 271 270 270 279 273 238 232 226 228 235 236 233 238
321 324 324 322 323 323 323 322 323 324 325 327 328 328 329 329 328 328 327 326 326 325 323 318 315 311 309 303 299 290 275 264 263 267 265 238 223 222 223 230 226 225 224
325 325 324 323 323 322 322 323 326 327 328 328 329 329 329 329 329 328 327 326 325 324 323 320 316 311 306 303 302 298 288 270 263 258 258 230 213 214 215 219 216 217 216
Height
1510 1513 1516 1519 1520 1521 1523 1523 1525 1528 1529 1533 1532 1534 1536 1535 1532 1530 1529 1527 1526 1523 1522 1519 1518 1514 1512 1510 1509 1508 1507 1506 1503 1502 1500 1498 1496 1493 1490 1486 1482 1478 1474
1505 1507 1509 1513 1515 1518 1521 1525 1528 1530 1528 1527 1530 1530 1530 1529 1528 1526 1524 1522 1520 1518 1517 1515 1512 1510 1507 1506 1504 1503 1501 1500 1498 1496 1494 1493 1490 1487 1483 1479 1475 1471 1467
1501 1504 1508 1509 1514 1515 1521 1523 1525 1523 1524 1525 1527 1527 1526 1525 1523 1521 1519 1517 1515 1513 1512 1509 1507 1504 1502 1500 1498 1497 1496 1494 1493 1490 1488 1486 1483 1481 1476 1473 1469 1465 1462
1499 1502 1503 1506 1512 1517 1518 1519 1520 1521 1522 1523 1523 1522 1521 1519 1517 1515 1513 1511 1509 1508 1506 1503 1500 1498 1495 1493 1491 1490 1489 1488 1487 1485 1483 1480 1478 1475 1471 1466 1462 1459 1454
1497 1500 1502 1506 1511 1514 1515 1516 1518 1519 1520 1520 1519 1517 1515 1513 1511 1509 1507 1504 1502 1501 1499 1496 1493 1491 1488 1486 1485 1484 1483 1482 1481 1479 1477 1475 1471 1469 1465 1461 1457 1452 1448
1496 1498 1502 1507 1510 1511 1513 1515 1517 1517 1516 1515 1513 1511 1510 1508 1506 1503 1500 1498 1495 1493 1491 1489 1486 1484 1481 1480 1479 1478 1478 1477 1475 1474 1472 1469 1466 1463 1460 1456 1452 1448 1442
1496 1500 1504 1506 1509 1511 1512 1512 1513 1513 1512 1511 1509 1506 1504 1502 1499 1497 1494 1491 1489 1486 1484 1481 1478 1475 1474 1474 1473 1472 1471 1470 1469 1468 1466 1464 1460 1458 1454 1451 1448 1444 1441
1497 1500 1503 1507 1509 1509 1510 1510 1509 1508 1507 1506 1504 1501 1498 1496 1493 1490 1487 1483 1481 1479 1477 1474 1471 1469 1468 1468 1467 1465 1464 1463 1463 1461 1459 1457 1455 1453 1450 1446 1443 1439 1436
1497 1501 1504 1505 1507 1506 1507 1506 1505 1503 1502 1500 1497 1495 1492 1489 1486 1483 1479 1476 1473 1470 1469 1466 1464 1461 1462 1461 1460 1459 1457 1456 1456 1455 1453 1451 1449 1448 1446 1443 1440 1435 1429
1499 1502 1503 1505 1505 1504 1504 1502 1501 1499 1496 1494 1491 1488 1485 1481 1479 1476 1473 1469 1464 1461 1460 1458 1457 1454 1454 1454 1453 1452 1450 1450 1450 1449 1448 1446 1445 1443 1442 1439 1436 1432 1428
1499 1500 1501 1501 1501 1501 1499 1498 1496 1493 1490 1488 1484 1481 1478 1476 1472 1469 1465 1461 1457 1453 1450 1449 1449 1448 1447 1447 1446 1445 1444 1444 1443 1442 1442 1441 1440 1439 1437 1435 1432 1428 1424
1497 1498 1498 1498 1497 1496 1494 1493 1491 1487 1483 1480 1476 1472 1469 1468 1465 1461 1457 1453 1450 1446 1442 1440 1440 1441 1440 1439 1438 1437 1437 1437 1436 1436 1435 1434 1434 1433 1432 1429 1426 1423 1419
1494 1494 1494 1494 1493 1491 1489 1486 1483 1481 1477 1472 1468 1462 1457 1454 1452 1452 1449 1445 1441 1437 1435 1432 1432 1432 1431 1431 1430 1430 1429 1429 1429 1428 1428 1427 1428 1427 1425 1423 1420 1417 1414
1492 1491 1490 1489 1487 1485 1483 1480 1476 1473 1469 1464 1459 1453 1447 1441 1438 1436 1436 1433 1430 1427 1425 1425 1425 1424 1423 1423 1422 1423 1422 1421 1421 1421 1421 1421 1421 1421 1420 1418 1414 1411 1408
1488 1487 1485 1483 1480 1477 1475 1472 1468 1466 1462 1456 1452 1447 1442 1434 1430 1428 1424 1421 1418 1417 1414 1415 1416 1417 1415 1415 1415 1415 1414 1414 1414 1414 1414 1414 1415 1415 1414 1412 1409 1406 1403
1483 1481 1478 1476 1473 1470 1466 1462 1462 1458 1454 1451 1447 1442 1433 1430 1423 1418 1415 1412 1409 1407 1406 1406 1407 1408 1407 1407 1407 1407 1407 1406 1406 1407 1407 1407 1408 1408 1408 1407 1405 1402 1399
1477 1475 1473 1471 1468 1464 1460 1456 1450 1447 1447 1442 1438 1432 1428 1422 1415 1411 1406 1402 1400 1400 1400 1400 1400 1401 1400 1400 1400 1399 1399 1399 1399 1399 1400 1400 1402 1403 1402 1402 1400 1398 1396
1473 1471 1468 1466 1463 1460 1457 1453 1450 1446 1438 1432 1431 1427 1422 1417 1412 1408 1404 1400 1398 1396 1396 1395 1394 1393 1393 1393 1392 1391 1391 1391 1391 1392 1393 1394 1396 1397 1397 1396 1395 1394 1392
1469 1466 1464 1462 1459 1456 1454 1451 1448 1444 1440 1435 1429 1425 1420 1414 1410 1405 1401 1398 1396 1394 1392 1391 1390 1388 1387 1386 1384 1384 1383 1384 1384 1385 1386 1388 1390 1391 1392 1392 1391 1390 1388
1465 1463 1460 1458 1456 1453 1450 1447 1443 1440 1436 1432 1427 1422 1416 1412 1407 1403 1400 1396 1393 1390 1388 1386 1384 1382 1381 1380 1378 1377 1377 1377 1378 1378 1380 1382 1384 1385 1386 1387 1386 1386 1385
1461 1459 1457 1455 1452 1449 1446 1443 1440 1436 1433 1429 1425 1421 1416 1411 1407 1403 1399 1395 1391 1387 1384 1382 1379 1378 1376 1374 1372 1371 1371 1370 1371 1372 1374 1376 1378 1380 1381 1382 1382 1382 1381
1458 1456 1453 1450 1448 1445 1442 1439 1436 1432 1429 1425 1421 1417 1413 1409 1405 1401 1396 1393 1389 1385 1381 1378 1376 1373 1371 1369 1368 1366 1365 1365 1365 1366 1368 1370 1373 1374 1376 1377 1378 1378 1378
1454 1452 1449 1446 1444 1441 1438 1435 1431 1428 1424 1421 1416 1412 1408 1404 1400 1396 1393 1389 1385 1381 1377 1374 1371 1368 1366 1365 1364 1362 1360 1360 1360 1360 1362 1364 1366 1368 1371 1372 1374 1374 1375
1449 1447 1444 1442 1439 1437 1433 1430 1427 1423 1420 1416 1412 1408 1404 1400 1396 1392 1388 1384 1380 1376 1373 1369 1366 1363 1360 1358 1357 1356 1355 1355 1354 1354 1355 1357 1360 1363 1365 1368 1369 1371 1371
1445 1442 1440 1437 1435 1431 1428 1425 1422 1419 1415 1411 1408 1404 1400 1396 1392 1387 1383 1379 1375 1371 1368 1364 1361 1358 1355 1353 1351 1349 1348 1348 1348 1348 1349 1351 1354 1357 1360 1363 1365 1367 1368
1440 1438 1435 1433 1429 1426 1423 1420 1417 1413 1410 1406 1403 1399 1395 1391 1387 1383 1378 1374 1370 1366 1363 1360 1357 1353 1350 1348 1345 1343 1341 1340 1341 1342 1343 1344 1348 1352 1355 1358 1361 1363 1365